HUBBLE
1 20580U 90037B 08233.53397704 .00000289 00000-0 94947-5 0 02189
2 20580 028.4694 263.5273 0003528 348.4868 011.5639 15.00400612804654
PO-34
1 25520U 98064B 08233.92323446 .00000364 00000-0 81223-5 0 00636
2 25520 028.4582 105.3703 0005287 268.0753 091.9237 15.17220102543001
ISS
1 25544U 98067A 08233.82792824 .00008181 00000-0 68322-4 0 00958
2 25544 051.6419 044.5284 0008365 039.4067 163.5781 15.71055617558700
CO-58
1 28895U 05043F 08234.72156548 .00000105 00000-0 31513-4 0 1006
2 28895 098.0890 127.1559 0017351 201.2050 158.8446 14.59690711150044
NCUBE2
1 28897U 05043H 08234.67840281 .00000061 00000-0 22380-4 0 6318
2 28897 098.0870 127.0384 0016560 203.5592 156.4862 14.59862498142327
FALCON
1 30776U 07006E 08233.94186552 .00000205 00000-0 17985-4 0 03807
2 30776 035.4333 120.7572 0001354 260.2693 099.7870 15.03036201079895
MAST
1 31126U 07012K 08234.64259006 .00000142 00000-0 42440-4 0 4015
2 31126 098.0353 296.4463 0095946 128.7680 232.2230 14.53441410 71528
CAPE1
1 31130U 07012P 08233.83206071 .00000048 00000-0 21628-4 0 3844
2 31130 098.0348 294.5314 0103826 134.4490 226.5251 14.51986257 71105
CUTE1-7
1 32785U 08021C 08234.84153107 -.00000069 00000-0 -18820-5 0 1366
2 32785 097.9873 294.5855 0013823 284.7182 075.2469 14.81384406 17120
COMPASS
1 32787U 08021E 08234.83725784 .00000060 00000-0 14519-4 0 1261
2 32787 097.9844 294.5259 0014902 286.3653 073.5920 14.81448835 17128
AAUSAT2
1 32788U 08021F 08234.69370455 .00000316 00000-0 47143-4 0 1260
2 32788 097.9835 294.3997 0014249 290.7638 069.2050 14.81559969 17107
DO-64
1 32789U 08021G 08233.96015611 .00000370 00000-0 54107-4 0 01426
2 32789 097.9866 293.6938 0014753 289.2905 070.6717 14.81454014016996
SEEDS
1 32791U 08021J 08233.29462270 .00000219 00000-0 34910-4 0 01299
2 32791 097.9867 293.0047 0015264 289.5339 070.4215 14.81304434016864
CANX-2
1 32797U 08021L 08234.40699415 .00002007 00000-0 25952-3 0 653
2 32797 097.9918 294.2483 0014735 287.4139 072.5495 14.81970035 15746
RS-30
1 32953U 08025A 08233.80189825 .00000010 00000-0 00000 0 0 872
2 32953 082.4978 083.4092 0019578 111.5619 248.7557 12.42996933 11077
